Total_Precipitation_Accumulation
0.10 0.18 0.21 0.23 0.21 0.19 0.14 0.13 0.18 0.28 0.43 0.59 0.70 0.94 0.82 0.80 0.87 0.95 0.84 0.79 0.71 0.76 0.85 1.01 1.04 0.99 1.00 1.06 1.12 1.26 1.26 1.23 1.29 1.40 1.44 1.49 1.52 1.56 1.61 1.64 1.64 1.81 1.83 1.93
0.11 0.14 0.15 0.17 0.19 0.16 0.12 0.10 0.11 0.22 0.44 0.64 0.74 0.82 0.79 0.68 0.73 0.95 0.87 0.78 0.77 0.87 1.02 1.03 0.95 0.92 0.95 0.92 1.00 1.18 1.28 1.39 1.48 1.49 1.43 1.50 1.53 1.55 1.56 1.62 1.70 1.79 1.85 1.97
0.21 0.17 0.19 0.27 0.22 0.19 0.16 0.14 0.15 0.28 0.46 0.63 0.79 0.74 0.80 0.76 0.71 0.70 0.68 0.70 0.78 0.86 0.92 0.98 1.01 0.98 0.91 0.83 0.96 1.26 1.35 1.38 1.57 1.68 1.60 1.65 1.67 1.67 1.64 1.65 1.78 1.86 1.99 2.06
0.28 0.31 0.38 0.31 0.26 0.25 0.27 0.28 0.26 0.30 0.43 0.65 0.86 0.81 0.78 0.79 0.77 0.69 0.57 0.66 0.78 0.80 0.81 0.85 0.89 0.88 0.86 0.91 0.98 1.25 1.46 1.54 1.79 1.96 1.84 1.83 1.83 1.85 1.88 1.94 1.96 2.06 2.10 2.01
0.43 0.45 0.48 0.41 0.38 0.40 0.48 0.59 0.50 0.51 0.65 0.71 0.70 0.74 0.82 0.76 0.70 0.65 0.63 0.68 0.73 0.82 0.88 0.98 1.07 1.06 1.04 1.14 1.26 1.45 1.64 1.76 1.98 2.21 2.33 2.29 2.15 2.21 2.29 2.27 2.23 2.28 2.30 2.25
0.59 0.66 0.75 0.69 0.56 0.51 0.66 1.07 0.88 0.71 0.74 0.76 0.77 0.98 0.99 0.72 0.63 0.61 0.64 0.74 0.88 1.05 1.05 1.12 1.27 1.20 1.22 1.37 1.62 1.78 1.81 1.84 2.00 2.21 2.31 2.29 2.31 2.50 2.61 2.51 2.40 2.42 2.31 2.18
0.67 0.77 0.78 0.71 0.64 0.67 1.18 1.57 1.12 0.95 0.96 1.01 1.02 0.98 0.84 0.77 0.78 0.70 0.68 0.78 0.84 0.87 1.01 1.15 1.28 1.36 1.50 1.57 1.69 1.76 1.78 1.81 1.94 2.17 2.44 2.40 2.44 2.53 2.61 2.60 2.59 2.58 2.48 2.35
0.80 1.04 1.18 0.77 0.69 1.06 1.43 1.30 1.34 1.30 1.27 1.22 1.07 0.90 0.78 0.78 0.84 0.76 0.75 0.81 0.81 0.80 0.92 1.12 1.34 1.56 1.67 1.67 1.71 1.80 1.79 1.76 1.85 2.13 2.26 2.31 2.46 2.51 2.61 2.70 2.68 2.64 2.61 2.42
1.08 1.31 1.21 0.96 1.03 1.08 1.16 1.28 1.33 1.26 1.27 1.24 1.18 1.06 0.95 0.92 0.89 0.86 0.92 0.91 0.92 0.93 1.01 1.14 1.32 1.56 1.77 1.81 1.79 1.71 1.66 1.64 1.73 1.90 2.00 2.15 2.25 2.20 2.26 2.38 2.36 2.40 2.40 2.35
1.50 1.49 1.31 1.16 1.10 1.08 1.08 1.14 1.10 1.05 1.01 1.00 1.01 0.99 0.97 1.00 1.05 1.07 1.11 1.07 1.07 1.12 1.16 1.22 1.31 1.50 1.69 1.71 1.73 1.71 1.62 1.57 1.67 1.89 1.99 2.07 2.12 2.10 2.15 2.20 2.27 2.34 2.37 2.31
1.91 1.87 1.66 1.51 1.32 1.26 1.14 1.14 1.13 1.03 0.99 0.94 0.86 0.87 0.88 0.87 0.95 1.02 1.07 1.10 1.10 1.15 1.22 1.24 1.29 1.48 1.62 1.66 1.72 1.78 1.74 1.68 1.77 1.87 1.95 2.12 2.18 2.21 2.22 2.21 2.18 2.18 2.17 2.11
2.14 1.95 1.81 1.76 1.41 1.35 1.40 1.29 1.16 1.15 1.11 1.01 0.88 0.84 0.86 0.85 0.89 0.94 1.03 1.14 1.19 1.27 1.28 1.25 1.27 1.41 1.54 1.71 1.86 1.91 1.87 1.84 1.80 1.74 1.82 1.87 1.92 1.87 1.83 1.76 1.74 1.69 1.68 1.60
1.56 1.60 1.69 1.82 1.63 1.40 1.36 1.28 1.20 1.18 1.15 1.06 0.96 0.91 0.82 0.78 0.85 0.93 1.02 1.15 1.29 1.40 1.32 1.28 1.32 1.42 1.51 1.65 1.87 1.98 1.92 1.80 1.69 1.60 1.60 1.61 1.68 1.76 1.80 1.69 1.59 1.48 1.41 1.30
1.54 1.71 1.84 1.81 1.81 1.70 1.44 1.32 1.21 1.16 1.12 1.04 0.98 0.94 0.89 0.87 0.87 0.97 1.12 1.19 1.20 1.26 1.27 1.24 1.25 1.33 1.44 1.60 1.85 1.99 1.91 1.81 1.62 1.52 1.52 1.49 1.58 1.66 1.68 1.68 1.63 1.43 1.28 1.18
1.71 1.75 1.77 1.65 1.62 1.67 1.61 1.53 1.40 1.27 1.15 1.10 1.07 1.06 1.01 0.95 0.93 1.01 1.10 1.25 1.36 1.36 1.28 1.26 1.28 1.31 1.37 1.51 1.68 1.84 1.88 1.79 1.65 1.60 1.61 1.53 1.43 1.42 1.44 1.48 1.54 1.46 1.27 1.20
1.65 1.56 1.57 1.61 1.62 1.56 1.52 1.55 1.49 1.34 1.12 1.07 1.12 1.11 1.05 1.01 1.03 1.10 1.18 1.33 1.59 1.72 1.58 1.42 1.34 1.31 1.34 1.47 1.56 1.55 1.60 1.58 1.54 1.56 1.57 1.50 1.44 1.41 1.44 1.50 1.55 1.51 1.36 1.26
1.47 1.37 1.38 1.46 1.53 1.58 1.54 1.45 1.39 1.30 1.18 1.13 1.13 1.09 1.04 1.06 1.15 1.31 1.41 1.48 1.53 1.53 1.53 1.53 1.44 1.36 1.41 1.51 1.58 1.50 1.39 1.34 1.28 1.27 1.31 1.33 1.32 1.36 1.47 1.54 1.57 1.47 1.27 1.14
1.16 1.16 1.24 1.30 1.35 1.51 1.54 1.38 1.26 1.20 1.18 1.19 1.18 1.14 1.11 1.15 1.37 1.61 1.66 1.61 1.58 1.45 1.34 1.35 1.37 1.38 1.48 1.55 1.62 1.60 1.45 1.28 1.13 1.09 1.13 1.17 1.28 1.37 1.41 1.41 1.35 1.28 1.18 1.09
0.90 0.95 1.04 1.13 1.18 1.24 1.31 1.33 1.32 1.21 1.13 1.17 1.27 1.31 1.30 1.31 1.48 1.73 1.78 1.79 1.77 1.61 1.33 1.20 1.25 1.26 1.35 1.44 1.52 1.49 1.27 1.08 0.92 0.88 0.92 1.04 1.19 1.36 1.39 1.31 1.20 1.16 1.14 1.10
0.85 0.84 0.91 0.95 0.99 1.03 1.12 1.16 1.16 1.19 1.19 1.19 1.25 1.29 1.37 1.43 1.59 1.78 1.90 1.93 1.80 1.61 1.38 1.19 1.09 1.07 1.12 1.26 1.37 1.33 1.17 1.00 0.86 0.81 0.85 0.98 1.16 1.35 1.34 1.21 1.15 1.18 1.18 1.18
0.84 0.84 0.85 0.90 0.95 0.93 0.97 1.02 1.06 1.14 1.22 1.22 1.32 1.42 1.47 1.47 1.59 1.83 2.04 2.01 1.70 1.40 1.24 1.18 1.04 0.95 0.98 1.16 1.21 1.14 1.09 1.00 0.91 0.90 0.94 1.09 1.28 1.37 1.28 1.19 1.13 1.13 1.15 1.23
0.91 0.89 0.86 0.88 0.94 0.95 0.96 1.01 1.04 1.10 1.19 1.18 1.28 1.42 1.47 1.56 1.56 1.55 1.63 1.78 1.64 1.41 1.13 0.98 0.93 0.98 1.05 1.14 1.11 1.05 1.05 1.03 0.98 0.98 1.07 1.21 1.30 1.32 1.21 1.15 1.20 1.18 1.15 1.19
0.96 0.92 0.89 0.87 0.90 0.95 0.91 0.95 1.00 1.10 1.22 1.20 1.21 1.28 1.41 1.53 1.53 1.57 1.50 1.37 1.36 1.32 1.09 0.94 0.92 0.99 1.05 1.05 1.07 1.05 1.08 1.04 0.97 0.98 1.07 1.18 1.24 1.25 1.25 1.24 1.23 1.21 1.21 1.20
0.93 0.89 0.90 0.90 0.92 0.99 1.04 1.00 1.00 1.07 1.16 1.10 1.06 1.07 1.21 1.35 1.32 1.25 1.33 1.38 1.33 1.28 1.11 1.03 0.97 0.94 0.95 0.94 1.00 1.08 1.13 1.05 0.98 0.97 1.00 1.06 1.12 1.20 1.31 1.36 1.33 1.25 1.19 1.15
0.95 0.93 0.89 0.97 1.08 1.18 1.17 1.12 1.14 1.17 1.19 1.11 1.04 0.99 1.02 1.21 1.31 1.20 1.19 1.22 1.21 1.16 1.07 1.04 1.00 1.04 1.02 1.03 1.02 1.03 1.00 0.90 0.88 0.89 0.96 1.05 1.08 1.11 1.17 1.19 1.16 1.17 1.17 1.16
1.05 1.02 1.00 1.04 1.10 1.16 1.18 1.29 1.38 1.36 1.38 1.35 1.18 0.98 0.94 1.03 1.09 1.14 1.19 1.17 1.18 1.20 1.07 0.98 0.95 0.99 1.03 1.11 1.09 0.97 0.86 0.80 0.79 0.79 0.86 0.96 0.99 1.04 1.08 1.08 1.04 1.07 1.09 1.09
1.04 1.02 1.04 1.08 1.09 1.08 1.08 1.18 1.30 1.41 1.54 1.54 1.30 1.02 0.94 1.00 1.08 1.15 1.19 1.21 1.26 1.27 1.20 1.07 0.98 0.97 0.98 1.01 1.01 0.94 0.86 0.79 0.77 0.79 0.82 0.83 0.86 0.97 1.05 1.09 1.03 1.04 1.07 1.06